Voltar ao catálogo

ARIANE 44L DEB

AtivoHEO
NORAD 28576·DEBRIS·🇫🇷 France

Lançado Oct 29, 1991 de Guiana Space Centre

Loading…

Próximas Passagens (próximas 24 horas)

TLE

AtualizadoSource: Space-Track

Época: Sep 14, 2026, 22:08 UTC

1 28576U 91075N   26257.92260742 -.00000319  00000-0 -69466-2 0  9992
2 28576   6.7782 293.2453 6596996 186.0138 107.5508  2.83940068256127

Acompanhe ARIANE 44L DEB em tempo real com AllMySat

Download on the App Store